Theta_e
346 339 333 331 330 329 329 330 331 331 332 333 333 332 331 330 330 331 328 328 329 327 326 327 328 327 326 325 324 328 333 333
347 334 330 331 329 328 326 328 330 330 332 333 333 332 332 331 331 331 328 327 328 326 325 326 328 327 326 323 324 330 332 331
347 346 329 331 329 326 323 325 327 330 332 333 333 332 332 331 331 332 329 328 328 326 325 326 327 327 324 323 324 329 332 332
340 346 345 335 333 326 322 322 324 327 331 332 332 332 332 332 331 331 328 327 329 327 326 327 327 327 324 324 324 332 330 332
341 342 344 346 342 341 327 320 321 326 329 331 331 332 335 337 337 334 329 327 328 327 326 327 327 329 331 326 324 332 332 332
340 342 343 343 341 341 342 326 320 322 327 330 329 332 336 339 338 338 335 328 327 327 326 326 326 334 333 331 328 332 333 331
326 339 341 340 340 340 338 331 336 329 327 328 333 334 333 340 337 339 337 332 329 330 333 331 328 332 333 332 331 331 331 331
320 327 338 339 339 336 341 337 337 341 339 334 333 337 335 341 339 339 340 335 337 334 336 336 334 333 333 332 332 331 330 330
319 320 321 338 337 337 334 340 335 338 340 341 341 338 340 337 340 339 340 338 336 336 337 336 336 334 332 332 332 331 330 330
318 319 319 320 334 338 338 335 340 338 333 337 340 339 338 338 337 338 340 339 336 335 336 336 336 336 334 333 331 331 331 330
317 318 319 319 319 321 336 338 337 339 339 338 336 339 338 336 338 339 338 340 338 336 334 335 336 336 335 332 332 331 331 331
310 315 318 318 318 318 320 334 338 337 337 340 340 338 334 337 334 339 337 340 339 338 336 333 336 335 335 335 332 330 330 330
307 307 307 316 318 318 319 320 326 334 338 337 340 339 339 335 337 333 337 337 340 338 337 333 335 335 334 332 333 332 331 330
306 307 308 308 312 318 321 320 318 322 332 332 335 339 339 338 337 338 334 335 340 339 337 335 335 336 335 333 332 332 331 331
305 305 306 308 310 311 319 319 320 321 320 330 336 336 336 338 336 338 337 335 337 337 337 337 334 335 335 333 332 331 331 330
302 304 305 305 309 312 315 319 322 323 327 328 324 336 338 338 336 337 337 338 336 338 336 335 335 335 333 334 331 330 330 329
300 300 303 304 306 308 310 313 317 322 325 328 327 330 331 337 335 336 337 338 337 336 335 335 334 333 332 333 332 331 330 328
300 298 299 302 303 306 308 309 312 315 319 324 329 328 334 333 330 333 336 337 336 335 335 334 333 332 330 326 328 329 326 330
299 301 299 299 301 303 305 306 309 312 315 319 322 330 330 331 331 330 330 333 334 333 333 334 334 332 328 325 324 327 328 329
296 297 299 298 298 300 301 303 306 308 310 316 323 329 331 330 329 331 333 332 332 331 331 333 331 328 322 320 324 324 323 326
Wind_Speed
17 12 17 16 14 13 13 12 12 12 13 13 13 12 13 13 12 10 8 6 5 4 3 3 3 3 3 2 3 5 2 4
17 14 18 19 17 16 16 15 14 14 15 15 15 15 15 15 14 12 11 9 7 6 5 5 5 5 4 4 5 6 0 7
13 17 14 19 19 18 19 18 18 18 18 18 18 17 17 16 15 14 13 11 9 8 7 7 7 7 7 7 7 8 4 2
14 15 15 16 17 20 22 22 22 21 21 21 20 18 18 18 17 17 16 14 13 11 10 9 9 8 8 8 7 6 2 5
14 14 16 17 13 19 21 25 25 25 24 23 22 20 16 13 17 19 19 18 17 15 14 12 10 5 4 4 7 5 9 9
14 14 16 21 21 24 21 21 27 28 27 25 24 24 20 21 22 20 21 23 20 18 17 15 12 14 13 11 6 6 14 13
14 16 18 22 21 19 24 24 21 24 26 27 26 24 24 24 20 22 21 22 19 18 14 11 12 14 12 13 10 9 11 16
16 15 18 22 24 22 20 24 24 23 22 26 28 28 27 26 27 25 25 18 20 19 16 18 12 15 18 17 15 14 14 14
24 22 21 18 24 23 26 23 25 33 30 27 28 29 30 34 30 29 27 23 23 19 22 20 22 18 18 21 20 19 17 17
17 18 22 15 13 25 28 29 24 26 30 34 33 35 36 31 34 34 30 29 27 28 27 25 25 23 22 20 20 20 21 22
16 15 16 14 15 23 25 30 27 23 28 31 35 39 39 38 34 35 35 31 33 34 34 31 28 27 25 23 23 20 22 24
21 16 17 16 14 17 23 23 15 23 31 31 34 38 41 37 42 39 39 35 35 38 37 34 32 30 27 24 26 24 23 25
30 28 18 17 17 16 19 26 25 29 32 36 34 37 41 41 38 47 42 43 41 44 39 37 34 35 33 30 24 29 28 28
32 34 31 24 22 20 23 24 27 25 34 34 38 37 41 42 44 42 44 44 43 43 44 40 37 34 36 28 20 25 30 30
33 36 36 33 29 26 27 31 24 22 30 30 36 39 44 43 44 47 41 45 47 50 48 44 45 42 40 28 15 15 20 32
33 34 35 34 33 31 28 30 32 28 24 26 41 35 37 44 42 45 46 42 49 51 50 48 48 48 45 44 30 18 14 11
30 34 34 33 31 29 30 31 36 39 34 31 34 39 43 42 43 43 45 45 44 48 47 46 51 53 43 40 41 37 31 23
35 32 37 35 32 27 28 30 30 37 41 39 34 30 42 44 42 44 46 45 43 43 45 47 48 45 37 24 33 43 40 38
35 37 37 37 35 30 26 29 26 25 24 29 42 39 36 43 43 43 44 47 44 43 43 42 47 40 30 27 36 49 32 32
34 35 36 36 36 32 26 24 26 20 18 17 27 36 36 40 38 39 39 39 39 41 37 34 34 28 18 27 44 38 29 26
Wind_Direction
266 242 219 214 217 222 226 218 211 210 210 209 212 212 213 211 210 209 211 208 205 207 216 217 224 223 216 198 159 166 233 169
255 261 221 212 217 223 227 222 216 213 214 213 213 212 215 215 215 217 218 213 208 212 217 211 209 211 204 182 160 175 282 292
241 267 241 221 221 226 232 226 219 213 215 216 216 216 217 217 218 224 229 224 218 218 219 215 211 210 199 190 177 147 263 293
292 242 252 236 225 230 230 231 225 219 217 216 216 217 221 223 223 226 225 226 224 225 224 218 216 218 213 207 177 170 145 235
273 262 236 232 216 245 235 232 231 223 220 221 216 216 211 229 233 231 232 230 226 225 225 221 217 194 267 238 194 161 236 241
269 247 244 250 227 217 235 234 231 231 224 220 219 214 200 225 231 240 242 237 234 232 234 228 212 192 219 262 213 204 236 249
342 261 254 265 261 226 242 229 228 238 232 226 218 215 203 217 224 238 249 240 232 238 246 238 224 194 225 238 232 237 241 260
17 8 263 263 270 249 233 244 208 232 235 231 226 219 212 211 218 219 241 243 236 228 229 234 245 218 219 225 230 228 245 257
349 355 28 262 266 268 234 239 237 221 219 222 234 224 219 215 213 213 227 238 220 234 224 218 235 233 235 230 226 229 237 244
346 346 350 353 284 254 255 227 228 242 239 223 225 234 226 225 219 216 217 227 227 220 218 224 221 233 233 230 233 236 232 243
335 326 328 327 335 319 266 239 228 232 246 242 231 236 235 231 222 226 214 221 226 228 225 220 222 222 233 235 239 236 231 239
324 311 312 314 311 320 323 289 250 251 241 241 244 237 247 239 229 226 224 217 224 230 229 221 221 223 219 231 240 245 236 240
339 329 326 313 303 301 317 315 288 262 252 247 245 242 240 248 237 232 228 214 222 226 225 218 220 224 227 232 236 226 226 233
346 339 335 327 304 277 288 286 275 281 266 256 243 239 243 243 248 239 237 225 223 227 222 217 217 220 221 216 223 222 222 227
355 349 341 331 322 302 277 266 263 280 270 264 250 245 239 244 246 249 244 232 229 228 230 220 221 216 221 209 198 217 233 232
348 353 349 337 325 318 305 293 285 261 262 276 254 248 248 238 241 248 252 248 235 231 233 232 226 223 220 214 208 206 209 230
343 345 351 344 327 317 314 301 286 278 266 260 256 255 246 243 242 240 247 249 246 240 237 231 229 231 226 224 227 229 227 214
339 345 344 347 338 318 313 311 303 293 275 263 260 267 248 239 245 243 244 245 244 242 238 235 236 233 229 240 254 239 232 220
340 341 343 343 341 327 312 307 310 304 300 285 265 253 256 246 244 246 247 245 246 245 240 237 232 235 223 248 250 245 239 235
339 338 339 341 342 332 323 314 302 319 322 318 272 262 258 251 246 249 247 244 241 240 235 221 232 221 243 242 244 239 239 235